• In Slovakia
  • List of Countries
  • For 7 days
  • Water Temperature
  • Satellite Maps
  • Weather Map
  • Weather Widgets
  • user-avatar
    Login

    Hourly Weather Potsdam

    Today, 22 October, Monday

    Time Temperature Precipitation Wind Pressure Humidity
    00:00 +8°C° 0 mm 2 mps 766 mmHg 82%
    01:00 +8°C° 0 mm 2 mps 766 mmHg 84%
    02:00 +8°C° 0 mm 2 mps 765 mmHg 85%
    03:00 +7°C° 0 mm 2 mps 765 mmHg 86%
    04:00 +7°C° 0 mm 2 mps 765 mmHg 87%
    05:00 +7°C° 0 mm 2 mps 765 mmHg 88%
    06:00 +7°C° 0 mm 2 mps 765 mmHg 88%
    07:00 +7°C° 0 mm 2 mps 765 mmHg 88%
    08:00 +8°C° 0.1 mm 2 mps 765 mmHg 84%
    09:00 +9°C° 0.1 mm 3 mps 765 mmHg 81%
    10:00 +11°C° 0.1 mm 3 mps 765 mmHg 77%
    11:00 +11°C° 0.4 mm 3 mps 765 mmHg 80%
    12:00 +11°C° 0.4 mm 3 mps 765 mmHg 82%
    13:00 +11°C° 0.4 mm 4 mps 765 mmHg 84%
    14:00 +11°C° 0.1 mm 4 mps 765 mmHg 78%
    15:00 +11°C° 0.1 mm 4 mps 766 mmHg 73%
    16:00 +11°C° 0.1 mm 3 mps 766 mmHg 68%
    17:00 +11°C° 0 mm 3 mps 766 mmHg 69%
    18:00 +10°C° 0 mm 3 mps 767 mmHg 70%
    19:00 +9°C° 0 mm 3 mps 767 mmHg 71%
    20:00 +8°C° 0 mm 3 mps 767 mmHg 73%
    21:00 +7°C° 0 mm 3 mps 767 mmHg 75%
    22:00 +7°C° 0 mm 3 mps 767 mmHg 77%
    23:00 +5°C° 0 mm 3 mps 767 mmHg 77%

    Tomorrow, 23 October, Tuesday

    Time Temperature Precipitation Wind Pressure Humidity
    00:00 +5°C° 0 mm 3 mps 767 mmHg 78%
    01:00 +5°C° 0 mm 3 mps 767 mmHg 79%
    02:00 +5°C° 0 mm 4 mps 766 mmHg 79%
    03:00 +5°C° 0 mm 4 mps 765 mmHg 80%
    04:00 +5°C° 0 mm 5 mps 764 mmHg 80%
    05:00 +5°C° 0.1 mm 5 mps 763 mmHg 80%
    06:00 +5°C° 0.1 mm 6 mps 763 mmHg 79%
    07:00 +5°C° 0.1 mm 7 mps 762 mmHg 78%
    08:00 +6°C° 0.5 mm 7 mps 761 mmHg 78%
    09:00 +6°C° 0.5 mm 8 mps 760 mmHg 78%
    10:00 +7°C° 0.5 mm 9 mps 759 mmHg 78%
    11:00 +8°C° 0.3 mm 9 mps 758 mmHg 78%
    12:00 +8°C° 0.3 mm 9 mps 757 mmHg 78%
    13:00 +10°C° 0.3 mm 9 mps 756 mmHg 78%
    14:00 +9°C° 0.4 mm 10 mps 756 mmHg 79%
    15:00 +9°C° 0.4 mm 10 mps 755 mmHg 80%
    16:00 +11°C° 0.4 mm 10 mps 754 mmHg 81%
    17:00 +11°C° 0.5 mm 10 mps 754 mmHg 81%
    18:00 +11°C° 0.5 mm 9 mps 753 mmHg 81%
    19:00 +12°C° 0.5 mm 9 mps 753 mmHg 81%
    20:00 +12°C° 0.6 mm 9 mps 753 mmHg 81%
    21:00 +12°C° 0.6 mm 10 mps 752 mmHg 82%
    22:00 +12°C° 0.6 mm 10 mps 752 mmHg 82%
    23:00 +12°C° 0.5 mm 10 mps 752 mmHg 80%

    Day after tomorrow, 24 October, Wednesday

    Time Temperature Precipitation Wind Pressure Humidity
    00:00 +12°C° 0.5 mm 10 mps 752 mmHg 79%
    01:00 +12°C° 0.5 mm 10 mps 751 mmHg 78%
    02:00 +11°C° 0.2 mm 10 mps 752 mmHg 75%
    03:00 +10°C° 0.2 mm 9 mps 753 mmHg 72%
    04:00 +8°C° 0.2 mm 9 mps 753 mmHg 70%
    05:00 +7°C° 0 mm 8 mps 754 mmHg 70%
    06:00 +6°C° 0 mm 8 mps 755 mmHg 69%
    07:00 +5°C° 0 mm 7 mps 755 mmHg 69%
    08:00 +6°C° 0 mm 7 mps 756 mmHg 64%
    09:00 +8°C° 0 mm 7 mps 757 mmHg 59%
    10:00 +8°C° 0 mm 7 mps 758 mmHg 54%
    11:00 +9°C° 0 mm 7 mps 758 mmHg 51%
    12:00 +9°C° 0 mm 7 mps 759 mmHg 48%
    13:00 +10°C° 0 mm 7 mps 759 mmHg 45%
    14:00 +10°C° 0 mm 6 mps 759 mmHg 47%
    15:00 +9°C° 0 mm 5 mps 759 mmHg 48%
    16:00 +9°C° 0 mm 5 mps 760 mmHg 50%
    17:00 +8°C° 0 mm 4 mps 760 mmHg 56%
    18:00 +7°C° 0 mm 4 mps 760 mmHg 61%
    19:00 +6°C° 0 mm 4 mps 760 mmHg 67%
    20:00 +6°C° 0 mm 4 mps 761 mmHg 70%
    21:00 +6°C° 0 mm 4 mps 761 mmHg 72%
    22:00 +5°C° 0 mm 4 mps 761 mmHg 75%
    23:00 +6°C° 0 mm 4 mps 761 mmHg 78%

    25 October, Thursday

    Time Temperature Precipitation Wind Pressure Humidity
    00:00 +6°C° 0 mm 4 mps 760 mmHg 80%
    01:00 +6°C° 0 mm 4 mps 760 mmHg 83%
    02:00 +7°C° 0 mm 4 mps 760 mmHg 85%
    03:00 +7°C° 0 mm 4 mps 759 mmHg 86%
    04:00 +8°C° 0 mm 4 mps 759 mmHg 87%
    05:00 +10°C° 0.1 mm 4 mps 759 mmHg 88%
    06:00 +10°C° 0.1 mm 5 mps 758 mmHg 89%
    07:00 +10°C° 0.1 mm 5 mps 758 mmHg 90%
    08:00 +10°C° 0.2 mm 5 mps 758 mmHg 87%
    09:00 +12°C° 0.2 mm 5 mps 758 mmHg 85%
    10:00 +11°C° 0.2 mm 6 mps 758 mmHg 82%
    11:00 +11°C° 0.1 mm 6 mps 758 mmHg 78%
    12:00 +13°C° 0.1 mm 6 mps 757 mmHg 74%
    13:00 +13°C° 0.1 mm 6 mps 757 mmHg 70%
    14:00 +12°C° 0 mm 5 mps 757 mmHg 71%
    15:00 +12°C° 0 mm 5 mps 757 mmHg 72%
    16:00 +12°C° 0 mm 4 mps 756 mmHg 72%
    17:00 +11°C° 0 mm 4 mps 756 mmHg 76%
    18:00 +10°C° 0 mm 3 mps 756 mmHg 80%
    19:00 +9°C° 0 mm 3 mps 756 mmHg 83%
    20:00 +9°C° 0 mm 3 mps 756 mmHg 85%
    21:00 +9°C° 0 mm 3 mps 756 mmHg 87%
    22:00 +8°C° 0 mm 3 mps 755 mmHg 88%
    23:00 +8°C° 0 mm 3 mps 755 mmHg 89%

    26 October, Friday

    Time Temperature Precipitation Wind Pressure Humidity
    00:00 +8°C° 0 mm 3 mps 755 mmHg 89%
    01:00 +8°C° 0 mm 3 mps 754 mmHg 90%
    02:00 +8°C° 0 mm 3 mps 754 mmHg 89%
    03:00 +8°C° 0 mm 3 mps 753 mmHg 88%
    04:00 +8°C° 0 mm 3 mps 753 mmHg 87%
    05:00 +8°C° 0 mm 3 mps 752 mmHg 86%
    06:00 +8°C° 0 mm 3 mps 752 mmHg 86%
    07:00 +8°C° 0 mm 3 mps 751 mmHg 85%
    08:00 +8°C° 0 mm 4 mps 751 mmHg 81%
    09:00 +10°C° 0 mm 4 mps 751 mmHg 77%
    10:00 +9°C° 0 mm 5 mps 750 mmHg 73%
    11:00 +10°C° 0 mm 5 mps 750 mmHg 71%
    12:00 +10°C° 0 mm 5 mps 749 mmHg 69%
    13:00 +10°C° 0 mm 5 mps 749 mmHg 68%
    14:00 +10°C° 0 mm 5 mps 749 mmHg 68%
    15:00 +11°C° 0 mm 4 mps 749 mmHg 68%
    16:00 +11°C° 0 mm 4 mps 749 mmHg 68%
    17:00 +11°C° 0.1 mm 4 mps 749 mmHg 72%
    18:00 +10°C° 0.1 mm 3 mps 749 mmHg 76%
    19:00 +10°C° 0.1 mm 3 mps 749 mmHg 81%
    20:00 +9°C° 0.1 mm 2 mps 749 mmHg 83%
    21:00 +9°C° 0.1 mm 2 mps 749 mmHg 85%
    22:00 +8°C° 0.1 mm 2 mps 749 mmHg 87%
    23:00 +9°C° 0.1 mm 1 mps 749 mmHg 87%

    27 October, Saturday

    Time Temperature Precipitation Wind Pressure Humidity
    00:00 +9°C° 0.1 mm 1 mps 749 mmHg 88%
    01:00 +9°C° 0.1 mm 1 mps 748 mmHg 88%
    02:00 +9°C° 0.1 mm 1 mps 748 mmHg 88%
    03:00 +9°C° 0.1 mm 1 mps 748 mmHg 88%
    04:00 +8°C° 0.1 mm 1 mps 747 mmHg 88%
    05:00 +8°C° 0.2 mm 1 mps 747 mmHg 88%
    06:00 +8°C° 0.2 mm 1 mps 747 mmHg 88%
    07:00 +8°C° 0.2 mm 1 mps 747 mmHg 88%
    08:00 +8°C° 0.2 mm 1 mps 747 mmHg 84%
    09:00 +8°C° 0.2 mm 2 mps 747 mmHg 80%
    10:00 +8°C° 0.2 mm 2 mps 747 mmHg 76%
    11:00 +8°C° 0 mm 2 mps 747 mmHg 72%
    12:00 +9°C° 0 mm 2 mps 748 mmHg 68%
    13:00 +9°C° 0 mm 2 mps 748 mmHg 64%
    14:00 +9°C° 0 mm 2 mps 748 mmHg 65%
    15:00 +9°C° 0 mm 2 mps 748 mmHg 67%
    16:00 +9°C° 0 mm 1 mps 748 mmHg 68%
    17:00 +9°C° 0 mm 1 mps 748 mmHg 69%
    18:00 +8°C° 0 mm 1 mps 748 mmHg 70%
    19:00 +8°C° 0 mm 1 mps 748 mmHg 71%
    20:00 +7°C° 0 mm 1 mps 749 mmHg 71%
    21:00 +7°C° 0 mm 1 mps 749 mmHg 71%
    22:00 +7°C° 0 mm 1 mps 749 mmHg 72%
    23:00 +6°C° 0 mm 1 mps 749 mmHg 73%

    28 October, Sunday

    Time Temperature Precipitation Wind Pressure Humidity
    00:00 +6°C° 0 mm 1 mps 749 mmHg 73%
    01:00 +6°C° 0 mm 1 mps 749 mmHg 74%
    02:00 +6°C° 0 mm 1 mps 749 mmHg 74%
    03:00 +6°C° 0 mm 1 mps 749 mmHg 75%
    04:00 +5°C° 0 mm 0 mps 750 mmHg 75%
    05:00 +5°C° 0 mm 1 mps 750 mmHg 76%
    06:00 +5°C° 0 mm 1 mps 750 mmHg 77%
    07:00 +5°C° 0 mm 1 mps 750 mmHg 78%
    08:00 +6°C° 0 mm 1 mps 750 mmHg 74%
    09:00 +7°C° 0 mm 1 mps 751 mmHg 71%
    10:00 +8°C° 0 mm 1 mps 751 mmHg 67%
    11:00 +8°C° 0 mm 1 mps 751 mmHg 65%
    12:00 +9°C° 0 mm 1 mps 751 mmHg 64%
    13:00 +8°C° 0 mm 2 mps 751 mmHg 63%
    14:00 +8°C° 0.1 mm 2 mps 751 mmHg 65%
    15:00 +7°C° 0.1 mm 2 mps 751 mmHg 68%
    16:00 +7°C° 0.1 mm 2 mps 751 mmHg 71%
    17:00 +7°C° 0.3 mm 2 mps 751 mmHg 73%
    18:00 +6°C° 0.3 mm 2 mps 752 mmHg 76%
    19:00 +6°C° 0.3 mm 2 mps 752 mmHg 79%
    20:00 +6°C° 0.7 mm 2 mps 752 mmHg 81%
    21:00 +6°C° 0.7 mm 2 mps 752 mmHg 83%
    22:00 +4°C° 0.7 mm 3 mps 752 mmHg 85%
    23:00 +4°C° 0.6 mm 3 mps 753 mmHg 86%
    Show more